Regional Weather Roundup
Issued by NWS Cleveland, OH

Home | Current Version | Previous Version | Text Only | Print | Product List | Glossary On
Versions: 1 2 3 4 5 6 7 8 9 10 11 12 13 14 15 16 17 18 19 20 21 22 23 24 25 26 27 28 29 30 31 32 33 34 35 36 37 38 39 40 41 42 43 44 45 46 47 48 49 50
000
ASUS41 KCLE 221002
RWRCLE
OHIO REGIONAL WEATHER ROUNDUP
NATIONAL WEATHER SERVICE CLEVELAND, OH
600 AM EDT FRI MAY 22 2015

NOTE: "FAIR" INDICATES FEW OR NO CLOUDS BELOW 12,000 FEET WITH NO
SIGNIFICANT WEATHER AND/OR OBSTRUCTIONS TO VISIBILITY.

OHZ001>008-015>018-024>027-034-035-043-044-221100-
   NORTHWEST OHIO

CITY           SKY/WX    TMP DP  RH WIND       PRES   REMARKS
DEFIANCE       MOCLDY    48  41  76 CALM      30.08R
FINDLAY        CLOUDY    52  39  61 W12       30.08R
TOLEDO EXPRESS LGT RAIN  53  38  56 NW12      30.08R
TOLEDO EXEC    CLOUDY    54  38  54 NW10      30.08R
LIMA           CLEAR     47  39  74 W10       30.10R
$$

OHZ009>014-019>023-028>033-038-089-221100-
   NORTHEAST OHIO

CITY           SKY/WX    TMP DP  RH WIND       PRES   REMARKS
CLE-HOPKINS    MOCLDY    50  37  61 SW7       30.06R
CLE-LAKEFRONT  LGT RAIN  54  38  54 SW8       30.03R
CUY CO. ARPT   NOT AVBL
LORAIN-ELYRIA  CLOUDY    52  38  58 W7        30.06R
ASHTABULA      CLOUDY    46  42  86 CALM      30.02R
AKRON-CANTON   CLOUDY    46  37  71 SW9       30.05S
WOOSTER        PTCLDY    44  38  79 SW9       30.07R
MANSFIELD      CLOUDY    49  38  65 SW8       30.07R
YOUNGSTOWN     MOCLDY    45  37  73 SW6       30.03R
$$

OHZ042-051>053-060>062-070>072-077>081-221100-
  SOUTHWEST OHIO

CITY           SKY/WX    TMP DP  RH WIND       PRES   REMARKS
CINC-COVINGTON CLEAR     45  42  89 SW6       30.17R
CINC-LUNKEN    CLEAR     40  40 100 SW6       30.18R
HAMILTON       CLEAR     38  37  97 CALM      30.17R
DAYTON         CLEAR     45  41  86 SW9       30.13R
WRIGHT-PAT AFB CLEAR     44  41  88 S5        30.12R
DAYTON GENERAL CLEAR     42  40  92 S8        30.13R
WILMINGTON     CLEAR     40  37  89 SW9       30.14R
$$

OHZ036-037-039>041-045>050-054>059-063>069-073>076-082>088-221100-
  CENTRAL AND SOUTHEAST OHIO

CITY           SKY/WX    TMP DP  RH WIND       PRES   REMARKS
COLUMBUS       CLEAR     43  40  89 CALM      30.11R
OSU AIRPORT    CLEAR     45  39  79 SW6       30.11R
BOLTON FIELD   NOT AVBL
RICKENBACK AFB NOT AVBL
NEWARK         CLEAR     41  38  89 CALM      30.10S
MARION         MOCLDY    45  37  73 SW7       30.09R
LANCASTER      CLEAR     45  39  79 CALM      30.12R
ZANESVILLE     CLEAR     39  36  89 CALM      30.11R FOG
NEW PHILLY     PTCLDY    42  38  85 CALM      30.09S
$$


USA.gov is the U.S. government's official web portal to all federal, state and local government web resources and services.